Location: Allos
(44.2333°N, 6.6333°E)
Time: 03:38:17
(UTC+00:00)

Cosmos 2228 Rocket - Pass Details

Date: 01 December 2020
Orbit: 618 x 652 km, 82.5° (Epoch: 24 January)

Event Time Altitude Azimuth Distance (km) Brightness Sun altitude
Rises 17:25:47 0° 169° (S) 2,948 6.6 -15.6°
Reaches altitude 10° 17:28:07 10° 163° (SSE) 2,039 5.7 -16.0°
Maximum altitude 17:32:23 43° 92° (E) 910 3.4 -16.8°
Enters shadow 17:34:36 25° 36° (NE) 1,312 4.3 -17.2°
